This is the latest recevied weather packets stored in our database for station/object N9DMT-13. If no packets are shown the sender has not sent any weather packets the latest 1 day(s).
| Time | Temp. | Humidity | Pressure | Rain* | Wind** | Luminosity | Snow |
|---|---|---|---|---|---|---|---|
| 1777974692 | 3.33° C | 75% | 975.6 hPa | 0 mm | 0 m/s | - | - |
| 1777974391 | 3.33° C | 74% | 975.6 hPa | 0 mm | 0 m/s | - | - |
| 1777974090 | 3.89° C | 75% | 975.4 hPa | 0 mm | 0 m/s | - | - |
| 1777973789 | 3.89° C | 72% | 975.4 hPa | 0 mm | 0 m/s | - | - |
| 1777973489 | 4.44° C | 71% | 975.3 hPa | 0 mm | 0 m/s | - | - |
| 1777973188 | 4.44° C | 70% | 975.3 hPa | 0 mm | 0 m/s | - | - |
| 1777972887 | 4.44° C | 73% | 974.9 hPa | 0 mm | 0 m/s | - | - |
| 1777972587 | 4.44° C | 72% | 975.1 hPa | 0 mm | 0 m/s | - | - |
| 1777972286 | 5° C | 70% | 975.1 hPa | 0 mm | 0 m/s | - | - |
| 1777971985 | 5.56° C | 64% | 975.1 hPa | 0 mm | 0 m/s | - | - |
| 1777971684 | 5.56° C | 65% | 974.9 hPa | 0 mm | 0 m/s | - | - |
| 1777971383 | 5.56° C | 65% | 975 hPa | 0 mm | 0 m/s | - | - |
| 1777971082 | 5.56° C | 64% | 974.9 hPa | 0 mm | 0 m/s | - | - |
| 1777970781 | 5.56° C | 67% | 974.8 hPa | 0 mm | 0 m/s | - | - |
| 1777970480 | 6.11° C | 65% | 974.7 hPa | 0 mm | 0 m/s | - | - |
| 1777970180 | 6.11° C | 62% | 974.7 hPa | 0 mm | 0 m/s | - | - |
| 1777969879 | 6.11° C | 60% | 974.5 hPa | 0 mm | 0 m/s | - | - |
| 1777969578 | 6.67° C | 56% | 974.6 hPa | 0 mm | 0 m/s | - | - |
| 1777969278 | 6.67° C | 58% | 974.8 hPa | 0 mm | 0 m/s | - | - |
| 1777968977 | 6.67° C | 57% | 974.5 hPa | 0 mm | 0 m/s | - | - |
| 1777968676 | 6.67° C | 55% | 974.3 hPa | 0 mm | 0 m/s | - | - |
| 1777968375 | 6.67° C | 54% | 974.1 hPa | 0 mm | 0 m/s | - | - |
| 1777968074 | 7.22° C | 52% | 974 hPa | 0 mm | 0 m/s | - | - |
| 1777967773 | 7.22° C | 52% | 973.9 hPa | 0 mm | 0 m/s | - | - |
| 1777967473 | 7.22° C | 50% | 973.7 hPa | 0 mm | 0 m/s | - | - |
* Rain latest hour (hover to see other rain measurements)
** Current wind speed in m/s (hover to see current wind gust speed)